Time,TemperatureF,DewpointF,PressureIn,WindDirection,WindDirectionDegrees,WindSpeedMPH,WindSpeedGustMPH,Humidity,HourlyPrecipIn,Conditions,Clouds,dailyrainin,SoftwareType,DateUTC
2013-07-18 00:00:00,69.3,67.1,30.08,SW,225,1.8,1.8,93,0.00,,,0.00,WUHU216HW,2013-07-18 04:00:00,
2013-07-18 00:01:00,69.5,67.7,30.08,SW,225,1.8,1.8,94,0.00,,,0.00,WUHU216HW,2013-07-18 04:01:00,
2013-07-18 00:06:00,69.5,67.3,30.08,SW,225,1.3,2.5,93,0.00,,,0.00,WUHU216HW,2013-07-18 04:06:00,
2013-07-18 00:11:00,69.5,67.7,30.08,SW,225,0.4,2.5,94,0.00,,,0.00,WUHU216HW,2013-07-18 04:11:00,
2013-07-18 00:16:00,69.5,67.7,30.08,SW,225,0.7,1.8,94,0.00,,,0.00,WUHU216HW,2013-07-18 04:16:00,
2013-07-18 00:21:00,69.7,67.9,30.08,SW,225,0.9,1.6,94,0.00,,,0.00,WUHU216HW,2013-07-18 04:21:00,
2013-07-18 00:26:00,69.7,67.9,30.08,SW,225,0.9,2.0,94,0.00,,,0.00,WUHU216HW,2013-07-18 04:26:00,
2013-07-18 00:31:00,69.8,68.1,30.08,WSW,248,0.7,2.0,94,0.00,,,0.00,WUHU216HW,2013-07-18 04:31:00,
2013-07-18 00:36:00,69.8,68.1,30.08,WSW,248,0.9,1.3,94,0.00,,,0.00,WUHU216HW,2013-07-18 04:36:00,
2013-07-18 00:41:00,69.8,68.1,30.08,SSW,203,1.8,2.2,94,0.00,,,0.00,WUHU216HW,2013-07-18 04:41:00,
2013-07-18 00:46:00,69.8,68.1,30.08,SSW,203,1.6,2.5,94,0.00,,,0.00,WUHU216HW,2013-07-18 04:46:00,
2013-07-18 00:51:00,69.8,68.1,30.09,SSW,203,1.1,2.5,94,0.00,,,0.00,WUHU216HW,2013-07-18 04:51:00,
2013-07-18 00:56:00,69.8,68.1,30.08,WSW,248,1.8,2.5,94,0.00,,,0.00,WUHU216HW,2013-07-18 04:56:00,
2013-07-18 01:01:00,69.8,68.1,30.08,SSW,203,1.1,2.5,94,0.00,,,0.00,WUHU216HW,2013-07-18 05:01:00,
2013-07-18 01:06:00,69.8,68.1,30.08,SW,225,1.1,2.5,94,0.00,,,0.00,WUHU216HW,2013-07-18 05:06:00,
2013-07-18 01:11:00,69.8,68.1,30.08,SSW,203,1.3,2.5,94,0.00,,,0.00,WUHU216HW,2013-07-18 05:11:00,
2013-07-18 01:16:00,69.7,67.9,30.08,SSW,203,0.7,1.8,94,0.00,,,0.00,WUHU216HW,2013-07-18 05:16:00,
2013-07-18 01:21:00,69.7,67.9,30.07,SSW,203,0.9,1.8,94,0.00,,,0.00,WUHU216HW,2013-07-18 05:21:00,
2013-07-18 01:26:00,69.7,67.9,30.07,SSW,203,0.9,1.8,94,0.00,,,0.00,WUHU216HW,2013-07-18 05:26:00,
2013-07-18 01:31:00,69.7,67.9,30.06,SSW,203,0.0,1.8,94,0.00,,,0.00,WUHU216HW,2013-07-18 05:31:00,
2013-07-18 01:36:00,69.5,67.7,30.06,SSW,203,0.2,1.8,94,0.00,,,0.00,WUHU216HW,2013-07-18 05:36:00,
2013-07-18 01:41:00,69.5,67.7,30.06,SSW,203,0.0,0.9,94,0.00,,,0.00,WUHU216HW,2013-07-18 05:41:00,
2013-07-18 01:46:00,69.5,67.7,30.05,SSW,203,1.1,1.3,94,0.00,,,0.00,WUHU216HW,2013-07-18 05:46:00,
2013-07-18 01:51:00,69.3,67.5,30.05,SSW,203,0.0,1.3,94,0.00,,,0.00,WUHU216HW,2013-07-18 05:51:00,
2013-07-18 01:56:00,69.1,67.3,30.05,SSW,203,0.0,1.1,94,0.00,,,0.00,WUHU216HW,2013-07-18 05:56:00,
2013-07-18 02:01:00,69.1,67.3,30.05,SSW,203,0.4,0.7,94,0.00,,,0.00,WUHU216HW,2013-07-18 06:01:00,
2013-07-18 02:06:00,69.1,67.3,30.05,SSW,203,0.0,0.7,94,0.00,,,0.00,WUHU216HW,2013-07-18 06:06:00,
2013-07-18 02:11:00,68.9,67.2,30.05,SSW,203,0.0,0.7,94,0.00,,,0.00,WUHU216HW,2013-07-18 06:11:00,
2013-07-18 02:16:00,68.9,67.2,30.05,SSW,203,0.0,0.0,94,0.00,,,0.00,WUHU216HW,2013-07-18 06:16:00,
2013-07-18 02:21:00,68.8,67.0,30.05,SSW,203,0.0,0.0,94,0.00,,,0.00,WUHU216HW,2013-07-18 06:21:00,
2013-07-18 02:26:00,68.8,67.0,30.04,SSW,203,0.0,0.0,94,0.00,,,0.00,WUHU216HW,2013-07-18 06:26:00,
2013-07-18 02:31:00,68.8,67.0,30.04,SSW,203,0.0,0.0,94,0.00,,,0.00,WUHU216HW,2013-07-18 06:31:00,
2013-07-18 02:36:00,68.6,66.8,30.04,SSW,203,0.2,0.2,94,0.00,,,0.00,WUHU216HW,2013-07-18 06:36:00,
2013-07-18 02:41:00,68.6,66.8,30.04,SSW,203,0.0,0.4,94,0.00,,,0.00,WUHU216HW,2013-07-18 06:41:00,
2013-07-18 02:46:00,68.6,66.8,30.04,SSW,203,0.0,0.4,94,0.00,,,0.00,WUHU216HW,2013-07-18 06:46:00,
2013-07-18 02:51:00,68.4,66.6,30.04,SSW,203,0.4,0.7,94,0.00,,,0.00,WUHU216HW,2013-07-18 06:51:00,
2013-07-18 02:56:00,68.4,66.6,30.04,SSW,203,0.0,0.7,94,0.00,,,0.00,WUHU216HW,2013-07-18 06:56:00,
2013-07-18 03:01:00,68.4,66.6,30.04,SSW,203,0.0,0.4,94,0.00,,,0.00,WUHU216HW,2013-07-18 07:01:00,
2013-07-18 03:06:00,68.2,66.4,30.03,SSW,203,0.0,0.0,94,0.00,,,0.00,WUHU216HW,2013-07-18 07:06:00,
2013-07-18 03:11:00,68.2,66.4,30.04,SSW,203,0.2,0.2,94,0.00,,,0.00,WUHU216HW,2013-07-18 07:11:00,
2013-07-18 03:16:00,68.2,66.4,30.04,SSW,203,0.7,0.9,94,0.00,,,0.00,WUHU216HW,2013-07-18 07:16:00,
2013-07-18 03:21:00,68.4,66.6,30.03,SSW,203,0.0,2.0,94,0.00,,,0.00,WUHU216HW,2013-07-18 07:21:00,
2013-07-18 03:26:00,68.4,66.6,30.03,SSW,203,1.1,2.0,94,0.00,,,0.00,WUHU216HW,2013-07-18 07:26:00,
2013-07-18 03:31:00,68.2,66.4,30.03,SSW,203,0.0,1.3,94,0.00,,,0.00,WUHU216HW,2013-07-18 07:31:00,
2013-07-18 03:36:00,68.4,66.6,30.03,SSE,158,0.4,1.1,94,0.00,,,0.00,WUHU216HW,2013-07-18 07:36:00,
2013-07-18 03:41:00,68.4,66.6,30.03,SSE,158,0.0,0.7,94,0.00,,,0.00,WUHU216HW,2013-07-18 07:41:00,
2013-07-18 03:46:00,68.2,66.4,30.03,SSE,158,0.0,0.7,94,0.00,,,0.00,WUHU216HW,2013-07-18 07:46:00,
2013-07-18 03:51:00,68.0,66.3,30.03,SSE,158,0.7,0.9,94,0.00,,,0.00,WUHU216HW,2013-07-18 07:51:00,
2013-07-18 03:56:00,68.2,66.4,30.03,NE,45,1.3,1.8,94,0.00,,,0.00,WUHU216HW,2013-07-18 07:56:00,
2013-07-18 04:01:00,68.2,66.4,30.03,NE,45,1.3,1.8,94,0.00,,,0.00,WUHU216HW,2013-07-18 08:01:00,
2013-07-18 04:06:00,68.2,66.4,30.03,NE,45,0.0,1.8,94,0.00,,,0.00,WUHU216HW,2013-07-18 08:06:00,
2013-07-18 04:11:00,68.2,66.4,30.03,NE,45,0.4,1.3,94,0.00,,,0.00,WUHU216HW,2013-07-18 08:11:00,
2013-07-18 04:16:00,68.2,66.4,30.03,NE,45,0.0,0.7,94,0.00,,,0.00,WUHU216HW,2013-07-18 08:16:00,
2013-07-18 04:21:00,68.0,66.3,30.03,NE,45,0.0,0.7,94,0.00,,,0.00,WUHU216HW,2013-07-18 08:21:00,
2013-07-18 04:26:00,68.0,66.3,30.03,NE,45,0.0,0.0,94,0.00,,,0.00,WUHU216HW,2013-07-18 08:26:00,
2013-07-18 04:31:00,68.0,66.3,30.03,NE,45,0.0,0.0,94,0.00,,,0.00,WUHU216HW,2013-07-18 08:31:00,
2013-07-18 04:36:00,67.9,66.1,30.03,NE,45,0.0,0.0,94,0.00,,,0.00,WUHU216HW,2013-07-18 08:36:00,
2013-07-18 04:41:00,67.9,66.1,30.03,NE,45,0.0,0.0,94,0.00,,,0.00,WUHU216HW,2013-07-18 08:41:00,
2013-07-18 04:46:00,67.9,66.1,30.03,NE,45,0.0,0.0,94,0.00,,,0.00,WUHU216HW,2013-07-18 08:46:00,
2013-07-18 04:51:00,67.9,66.1,30.03,NE,45,0.0,0.0,94,0.00,,,0.00,WUHU216HW,2013-07-18 08:51:00,
2013-07-18 04:56:00,67.9,66.1,30.03,NE,45,0.4,0.4,94,0.00,,,0.00,WUHU216HW,2013-07-18 08:56:00,
2013-07-18 05:01:00,67.9,66.1,30.03,NE,45,0.0,0.4,94,0.00,,,0.00,WUHU216HW,2013-07-18 09:01:00,
2013-07-18 05:06:00,67.7,65.9,30.03,NE,45,0.0,0.4,94,0.00,,,0.00,WUHU216HW,2013-07-18 09:06:00,
2013-07-18 05:11:00,67.7,65.9,30.03,NE,45,0.0,0.0,94,0.00,,,0.00,WUHU216HW,2013-07-18 09:11:00,
2013-07-18 05:16:00,67.5,65.7,30.03,NE,45,0.2,0.4,94,0.00,,,0.00,WUHU216HW,2013-07-18 09:16:00,
2013-07-18 05:22:00,67.5,66.0,30.03,NE,45,0.0,0.4,95,0.00,,,0.00,WUHU216HW,2013-07-18 09:22:00,
2013-07-18 05:26:00,67.5,65.7,30.03,NE,45,0.0,0.2,94,0.00,,,0.00,WUHU216HW,2013-07-18 09:26:00,
2013-07-18 05:31:00,67.3,65.5,30.03,NE,45,0.0,0.0,94,0.00,,,0.00,WUHU216HW,2013-07-18 09:31:00,
2013-07-18 05:36:00,67.3,65.5,30.03,NE,45,0.0,0.0,94,0.00,,,0.00,WUHU216HW,2013-07-18 09:36:00,
2013-07-18 05:41:00,67.5,65.7,30.04,NE,45,0.0,0.4,94,0.00,,,0.00,WUHU216HW,2013-07-18 09:41:00,
2013-07-18 05:46:00,67.3,65.8,30.03,NE,45,0.0,0.4,95,0.00,,,0.00,WUHU216HW,2013-07-18 09:46:00,
2013-07-18 05:51:00,67.3,65.5,30.03,NE,45,0.0,0.0,94,0.00,,,0.00,WUHU216HW,2013-07-18 09:51:00,
2013-07-18 05:56:00,67.3,65.8,30.04,NE,45,0.0,0.0,95,0.00,,,0.00,WUHU216HW,2013-07-18 09:56:00,
2013-07-18 06:01:00,67.3,65.8,30.04,NE,45,0.0,0.0,95,0.00,,,0.00,WUHU216HW,2013-07-18 10:01:00,
2013-07-18 06:06:00,67.3,65.8,30.04,NE,45,0.0,0.0,95,0.00,,,0.00,WUHU216HW,2013-07-18 10:06:00,
2013-07-18 06:11:00,67.3,65.8,30.04,NE,45,0.0,0.0,95,0.00,,,0.00,WUHU216HW,2013-07-18 10:11:00,
2013-07-18 06:16:00,67.3,65.8,30.04,NE,45,0.0,0.0,95,0.00,,,0.00,WUHU216HW,2013-07-18 10:16:00,
2013-07-18 06:21:00,67.3,65.8,30.05,NE,45,0.0,0.0,95,0.00,,,0.00,WUHU216HW,2013-07-18 10:21:00,
2013-07-18 06:26:00,67.3,65.8,30.05,NE,45,0.2,0.7,95,0.00,,,0.00,WUHU216HW,2013-07-18 10:26:00,
2013-07-18 06:32:00,67.5,66.0,30.05,NE,45,0.0,0.7,95,0.00,,,0.00,WUHU216HW,2013-07-18 10:32:00,
2013-07-18 06:36:00,67.3,65.8,30.05,NE,45,0.2,0.2,95,0.00,,,0.00,WUHU216HW,2013-07-18 10:36:00,
2013-07-18 06:41:00,67.5,66.0,30.05,NE,45,0.4,1.1,95,0.00,,,0.00,WUHU216HW,2013-07-18 10:41:00,
2013-07-18 06:46:00,67.7,66.2,30.05,NE,45,0.7,1.6,95,0.00,,,0.00,WUHU216HW,2013-07-18 10:46:00,
2013-07-18 06:51:00,68.0,66.5,30.05,NE,45,1.8,2.5,95,0.00,,,0.00,WUHU216HW,2013-07-18 10:51:00,
2013-07-18 06:56:00,68.2,66.7,30.05,NE,45,1.3,2.5,95,0.00,,,0.00,WUHU216HW,2013-07-18 10:56:00,
2013-07-18 07:01:00,68.8,67.2,30.05,NNE,23,0.7,2.5,95,0.00,,,0.00,WUHU216HW,2013-07-18 11:01:00,
2013-07-18 07:07:00,69.1,67.6,30.05,NE,45,0.4,2.5,95,0.00,,,0.00,WUHU216HW,2013-07-18 11:07:00,
2013-07-18 07:12:00,69.1,67.6,30.04,NE,45,0.4,1.8,95,0.00,,,0.00,WUHU216HW,2013-07-18 11:12:00,
2013-07-18 07:17:00,69.3,67.8,30.05,NE,45,0.0,1.3,95,0.00,,,0.00,WUHU216HW,2013-07-18 11:17:00,
2013-07-18 07:22:00,69.5,68.0,30.05,WNW,293,0.7,1.3,95,0.00,,,0.00,WUHU216HW,2013-07-18 11:22:00,
2013-07-18 07:27:00,69.7,68.1,30.05,WNW,293,0.4,0.9,95,0.00,,,0.00,WUHU216HW,2013-07-18 11:27:00,
2013-07-18 07:32:00,70.0,68.5,30.05,WSW,248,1.8,1.8,95,0.00,,,0.00,WUHU216HW,2013-07-18 11:32:00,
2013-07-18 07:37:00,70.2,68.7,30.05,WSW,248,1.1,1.8,95,0.00,,,0.00,WUHU216HW,2013-07-18 11:37:00,
2013-07-18 07:42:00,70.6,69.0,30.06,WSW,248,0.9,1.8,95,0.00,,,0.00,WUHU216HW,2013-07-18 11:42:00,
2013-07-18 07:47:00,70.7,69.2,30.05,WSW,248,2.2,2.2,95,0.00,,,0.00,WUHU216HW,2013-07-18 11:47:00,
2013-07-18 07:52:00,70.6,69.0,30.06,WSW,248,0.4,2.5,95,0.00,,,0.00,WUHU216HW,2013-07-18 11:52:00,
2013-07-18 07:57:00,70.4,68.9,30.06,WSW,248,1.8,2.5,95,0.00,,,0.00,WUHU216HW,2013-07-18 11:57:00,
2013-07-18 08:02:00,70.4,68.9,30.06,SW,225,1.1,2.0,95,0.00,,,0.00,WUHU216HW,2013-07-18 12:02:00,
2013-07-18 08:07:00,70.6,69.0,30.06,WSW,248,0.4,2.0,95,0.00,,,0.00,WUHU216HW,2013-07-18 12:07:00,
2013-07-18 08:12:00,70.9,69.4,30.06,WNW,293,0.0,1.3,95,0.00,,,0.00,WUHU216HW,2013-07-18 12:12:00,
2013-07-18 08:17:00,71.1,69.6,30.06,WNW,293,0.0,1.1,95,0.00,,,0.00,WUHU216HW,2013-07-18 12:17:00,
2013-07-18 08:22:00,71.5,69.9,30.06,WNW,293,0.9,0.9,95,0.01,,,0.01,WUHU216HW,2013-07-18 12:22:00,
2013-07-18 08:27:00,71.6,69.9,30.06,WNW,293,0.0,0.9,94,0.01,,,0.01,WUHU216HW,2013-07-18 12:27:00,
2013-07-18 08:32:00,72.0,70.5,30.06,WNW,293,0.2,1.1,95,0.01,,,0.01,WUHU216HW,2013-07-18 12:32:00,
2013-07-18 08:37:00,72.4,70.6,30.06,WNW,293,0.4,1.1,94,0.01,,,0.01,WUHU216HW,2013-07-18 12:37:00,
2013-07-18 08:42:00,72.7,70.9,30.07,NNE,23,1.3,1.3,94,0.01,,,0.01,WUHU216HW,2013-07-18 12:42:00,
2013-07-18 08:47:00,73.1,71.3,30.07,NE,45,0.9,2.5,94,0.01,,,0.01,WUHU216HW,2013-07-18 12:47:00,
2013-07-18 08:52:00,73.4,71.7,30.07,NE,45,1.6,2.5,94,0.01,,,0.01,WUHU216HW,2013-07-18 12:52:00,
2013-07-18 08:57:00,74.2,72.6,30.07,NNE,23,0.7,2.5,95,0.01,,,0.01,WUHU216HW,2013-07-18 12:57:00,
2013-07-18 09:02:00,75.6,74.1,30.07,NNE,23,0.4,2.2,95,0.01,,,0.01,WUHU216HW,2013-07-18 13:02:00,
2013-07-18 09:07:00,76.7,75.2,30.07,NE,45,0.4,1.3,95,0.01,,,0.01,WUHU216HW,2013-07-18 13:07:00,
2013-07-18 09:12:00,77.8,76.2,30.07,ENE,68,1.8,1.8,95,0.01,,,0.01,WUHU216HW,2013-07-18 13:12:00,
2013-07-18 09:17:00,77.9,76.2,30.07,NNE,23,0.7,1.8,94,0.01,,,0.01,WUHU216HW,2013-07-18 13:17:00,
2013-07-18 09:22:00,78.5,76.1,30.07,NE,45,0.9,1.8,92,0.00,,,0.01,WUHU216HW,2013-07-18 13:22:00,
2013-07-18 09:27:00,79.2,76.4,30.07,South,180,0.2,1.6,91,0.00,,,0.01,WUHU216HW,2013-07-18 13:27:00,
2013-07-18 09:32:00,79.9,77.0,30.07,SW,225,0.4,1.1,91,0.00,,,0.01,WUHU216HW,2013-07-18 13:32:00,
2013-07-18 09:37:00,80.3,76.4,30.07,East,90,0.4,1.3,88,0.00,,,0.01,WUHU216HW,2013-07-18 13:37:00,
2013-07-18 09:42:00,80.6,76.1,30.07,East,90,0.0,1.6,86,0.00,,,0.01,WUHU216HW,2013-07-18 13:42:00,
2013-07-18 09:47:00,81.2,77.6,30.07,South,180,1.1,1.6,89,0.00,,,0.01,WUHU216HW,2013-07-18 13:47:00,
2013-07-18 09:52:00,81.7,77.8,30.06,SW,225,1.1,1.6,88,0.00,,,0.01,WUHU216HW,2013-07-18 13:52:00,
2013-07-18 09:57:00,82.4,78.2,30.07,SW,225,0.4,1.6,87,0.00,,,0.01,WUHU216HW,2013-07-18 13:57:00,
2013-07-18 10:02:00,83.2,78.5,30.06,SW,225,0.0,1.6,86,0.00,,,0.01,WUHU216HW,2013-07-18 14:02:00,
2013-07-18 10:07:00,83.7,77.6,30.06,ENE,68,2.2,2.2,82,0.00,,,0.01,WUHU216HW,2013-07-18 14:07:00,
2013-07-18 10:12:00,83.7,76.2,30.06,East,90,1.6,2.7,78,0.00,,,0.01,WUHU216HW,2013-07-18 14:12:00,
2013-07-18 10:17:00,83.7,76.2,30.06,East,90,0.4,2.9,78,0.00,,,0.01,WUHU216HW,2013-07-18 14:17:00,
2013-07-18 10:22:00,84.1,77.6,30.06,NNW,338,0.4,2.9,81,0.00,,,0.01,WUHU216HW,2013-07-18 14:22:00,
2013-07-18 10:27:00,84.6,78.1,30.06,NW,315,0.0,1.1,81,0.00,,,0.01,WUHU216HW,2013-07-18 14:27:00,
2013-07-18 10:32:00,85.3,78.1,30.07,NE,45,1.3,1.3,79,0.00,,,0.01,WUHU216HW,2013-07-18 14:32:00,
2013-07-18 10:37:00,85.7,77.7,30.06,North,0,0.4,3.4,77,0.00,,,0.01,WUHU216HW,2013-07-18 14:37:00,
2013-07-18 10:42:00,86.0,78.0,30.07,SW,225,0.7,3.4,77,0.00,,,0.01,WUHU216HW,2013-07-18 14:42:00,
2013-07-18 10:47:00,86.8,79.6,30.07,SSW,203,0.2,2.5,79,0.00,,,0.01,WUHU216HW,2013-07-18 14:47:00,
2013-07-18 10:52:00,87.3,79.7,30.07,SSW,203,1.1,2.0,78,0.00,,,0.01,WUHU216HW,2013-07-18 14:52:00,
2013-07-18 10:57:00,87.5,79.8,30.07,West,270,0.9,2.0,78,0.00,,,0.01,WUHU216HW,2013-07-18 14:57:00,
2013-07-18 11:02:00,87.8,78.5,30.07,ENE,68,1.8,2.0,74,0.00,,,0.01,WUHU216HW,2013-07-18 15:02:00,
2013-07-18 11:07:00,88.2,78.5,30.07,NE,45,0.0,2.0,73,0.00,,,0.01,WUHU216HW,2013-07-18 15:07:00,
2013-07-18 11:12:00,88.9,80.4,30.06,NNW,338,0.4,2.0,76,0.00,,,0.01,WUHU216HW,2013-07-18 15:12:00,
2013-07-18 11:17:00,89.5,80.9,30.06,SSW,203,0.4,1.6,76,0.00,,,0.01,WUHU216HW,2013-07-18 15:17:00,
2013-07-18 11:22:00,89.8,80.8,30.06,SSW,203,0.4,1.8,75,0.00,,,0.01,WUHU216HW,2013-07-18 15:22:00,
2013-07-18 11:27:00,90.0,80.6,30.06,NNE,23,0.2,1.8,74,0.00,,,0.01,WUHU216HW,2013-07-18 15:27:00,
2013-07-18 11:32:00,90.4,81.4,30.06,SW,225,1.6,1.8,75,0.00,,,0.01,WUHU216HW,2013-07-18 15:32:00,
2013-07-18 11:37:00,91.1,80.8,30.06,South,180,2.5,2.5,72,0.00,,,0.01,WUHU216HW,2013-07-18 15:37:00,
2013-07-18 11:42:00,90.7,78.7,30.06,WSW,248,2.2,3.4,68,0.00,,,0.01,WUHU216HW,2013-07-18 15:42:00,
2013-07-18 11:47:00,90.4,80.6,30.06,SW,225,0.7,3.4,73,0.00,,,0.01,WUHU216HW,2013-07-18 15:47:00,
2013-07-18 11:52:00,90.7,80.8,30.06,SW,225,0.9,2.2,73,0.00,,,0.01,WUHU216HW,2013-07-18 15:52:00,
2013-07-18 11:57:00,90.0,79.4,30.06,SW,225,1.6,3.4,71,0.00,,,0.01,WUHU216HW,2013-07-18 15:57:00,
2013-07-18 12:02:00,89.6,79.5,30.06,SSW,203,2.2,3.4,72,0.00,,,0.01,WUHU216HW,2013-07-18 16:02:00,
2013-07-18 12:07:00,89.8,79.7,30.06,WSW,248,2.2,2.9,72,0.00,,,0.01,WUHU216HW,2013-07-18 16:07:00,
2013-07-18 12:12:00,90.0,79.7,30.06,ENE,68,0.4,2.9,72,0.00,,,0.01,WUHU216HW,2013-07-18 16:12:00,
2013-07-18 12:17:00,90.2,79.1,30.06,ENE,68,0.7,2.2,70,0.00,,,0.01,WUHU216HW,2013-07-18 16:17:00,
2013-07-18 12:22:00,90.4,78.8,30.06,NE,45,2.5,2.7,69,0.00,,,0.01,WUHU216HW,2013-07-18 16:22:00,
2013-07-18 12:27:00,90.7,77.8,30.06,NE,45,0.9,2.7,66,0.00,,,0.01,WUHU216HW,2013-07-18 16:27:00,
2013-07-18 12:32:00,90.5,78.0,30.06,WSW,248,1.6,2.5,67,0.00,,,0.01,WUHU216HW,2013-07-18 16:32:00,
2013-07-18 12:37:00,90.5,79.5,30.06,SW,225,0.9,2.0,70,0.00,,,0.01,WUHU216HW,2013-07-18 16:37:00,
2013-07-18 12:42:00,91.1,78.6,30.06,SSW,203,1.8,3.4,67,0.00,,,0.01,WUHU216HW,2013-07-18 16:42:00,
2013-07-18 12:47:00,91.8,80.2,30.06,South,180,1.3,3.4,69,0.00,,,0.01,WUHU216HW,2013-07-18 16:47:00,
2013-07-18 12:52:00,93.1,78.1,30.06,South,180,1.8,4.5,62,0.00,,,0.01,WUHU216HW,2013-07-18 16:52:00,
2013-07-18 12:57:00,92.9,79.4,30.06,SSW,203,1.8,4.5,65,0.00,,,0.01,WUHU216HW,2013-07-18 16:57:00,
2013-07-18 13:02:00,93.6,79.6,30.06,SW,225,1.6,3.1,64,0.00,,,0.01,WUHU216HW,2013-07-18 17:02:00,
2013-07-18 13:07:00,93.6,79.6,30.06,WSW,248,1.1,4.7,64,0.00,,,0.01,WUHU216HW,2013-07-18 17:07:00,
2013-07-18 13:12:00,94.0,79.0,30.05,SSW,203,1.8,4.7,62,0.00,,,0.01,WUHU216HW,2013-07-18 17:12:00,
2013-07-18 13:17:00,92.9,78.9,30.05,SSW,203,0.9,3.4,64,0.00,,,0.01,WUHU216HW,2013-07-18 17:17:00,
2013-07-18 13:22:00,92.2,77.8,30.05,ENE,68,0.0,3.4,63,0.00,,,0.01,WUHU216HW,2013-07-18 17:22:00,
2013-07-18 13:27:00,92.3,78.4,30.05,South,180,0.4,5.8,64,0.00,,,0.01,WUHU216HW,2013-07-18 17:27:00,
2013-07-18 13:32:00,93.1,77.7,30.05,South,180,0.7,5.8,61,0.00,,,0.01,WUHU216HW,2013-07-18 17:32:00,
2013-07-18 13:37:00,93.8,78.9,30.05,SSW,203,3.4,3.4,62,0.00,,,0.01,WUHU216HW,2013-07-18 17:37:00,
2013-07-18 13:42:00,94.3,76.8,30.05,ENE,68,1.8,3.4,57,0.00,,,0.01,WUHU216HW,2013-07-18 17:42:00,
2013-07-18 13:47:00,94.7,76.0,30.04,NE,45,1.8,3.4,55,0.00,,,0.01,WUHU216HW,2013-07-18 17:47:00,
2013-07-18 13:52:00,95.0,76.3,30.04,NE,45,1.8,3.1,55,0.00,,,0.01,WUHU216HW,2013-07-18 17:52:00,
2013-07-18 13:57:00,95.2,77.6,30.04,SSW,203,1.3,3.1,57,0.00,,,0.01,WUHU216HW,2013-07-18 17:57:00,
2013-07-18 14:02:00,96.1,79.5,30.04,South,180,1.1,2.5,59,0.00,,,0.01,WUHU216HW,2013-07-18 18:02:00,
2013-07-18 14:07:00,96.8,77.4,30.04,WNW,293,1.6,2.5,54,0.00,,,0.01,WUHU216HW,2013-07-18 18:07:00,
2013-07-18 14:12:00,96.7,77.2,30.03,NE,45,0.7,2.0,54,0.00,,,0.01,WUHU216HW,2013-07-18 18:12:00,
2013-07-18 14:17:00,96.5,77.6,30.03,NW,315,0.4,2.2,55,0.00,,,0.01,WUHU216HW,2013-07-18 18:17:00,
2013-07-18 14:22:00,96.8,78.5,30.03,SSW,203,3.4,3.4,56,0.00,,,0.01,WUHU216HW,2013-07-18 18:22:00,
2013-07-18 14:27:00,96.7,78.3,30.03,SW,225,3.4,6.3,56,0.00,,,0.01,WUHU216HW,2013-07-18 18:27:00,
2013-07-18 14:32:00,96.1,77.3,30.03,WSW,248,2.2,6.3,55,0.00,,,0.01,WUHU216HW,2013-07-18 18:32:00,
2013-07-18 14:37:00,95.8,78.0,30.03,SW,225,0.7,4.9,57,0.00,,,0.01,WUHU216HW,2013-07-18 18:37:00,
2013-07-18 14:42:00,95.4,75.6,30.03,ESE,113,1.6,4.9,53,0.00,,,0.01,WUHU216HW,2013-07-18 18:42:00,
2013-07-18 14:47:00,95.6,76.2,30.02,North,0,1.1,4.0,54,0.00,,,0.01,WUHU216HW,2013-07-18 18:47:00,
2013-07-18 14:52:00,96.3,77.5,30.02,NNE,23,0.4,3.4,55,0.00,,,0.01,WUHU216HW,2013-07-18 18:52:00,
2013-07-18 14:57:00,96.7,77.2,30.02,SW,225,2.7,4.7,54,0.00,,,0.01,WUHU216HW,2013-07-18 18:57:00,
2013-07-18 15:02:00,95.9,76.6,30.02,SSW,203,1.8,4.7,54,0.00,,,0.01,WUHU216HW,2013-07-18 19:02:00,
2013-07-18 15:07:00,95.9,77.7,30.02,SE,135,0.9,4.0,56,0.00,,,0.01,WUHU216HW,2013-07-18 19:07:00,
2013-07-18 15:12:00,96.3,77.5,30.01,WNW,293,0.4,2.5,55,0.00,,,0.01,WUHU216HW,2013-07-18 19:12:00,
2013-07-18 15:17:00,96.3,77.5,30.01,South,180,0.7,2.2,55,0.00,,,0.01,WUHU216HW,2013-07-18 19:17:00,
2013-07-18 15:22:00,95.9,77.1,30.01,SW,225,1.8,1.8,55,0.00,,,0.01,WUHU216HW,2013-07-18 19:22:00,
2013-07-18 15:27:00,96.3,77.0,30.01,SE,135,1.8,2.5,54,0.00,,,0.01,WUHU216HW,2013-07-18 19:27:00,
2013-07-18 15:32:00,96.7,76.7,30.01,WSW,248,0.9,2.7,53,0.00,,,0.01,WUHU216HW,2013-07-18 19:32:00,
2013-07-18 15:37:00,96.5,76.5,30.01,NNE,23,0.7,2.7,53,0.00,,,0.01,WUHU216HW,2013-07-18 19:37:00,
2013-07-18 15:42:00,96.5,76.0,30.00,East,90,1.8,2.5,52,0.00,,,0.01,WUHU216HW,2013-07-18 19:42:00,
2013-07-18 15:47:00,95.9,76.1,30.00,SSW,203,3.4,3.4,53,0.00,,,0.01,WUHU216HW,2013-07-18 19:47:00,
2013-07-18 15:52:00,95.8,77.0,30.00,SW,225,0.7,3.4,55,0.00,,,0.01,WUHU216HW,2013-07-18 19:52:00,
2013-07-18 15:57:00,96.3,76.4,30.00,SSW,203,1.8,4.5,53,0.00,,,0.01,WUHU216HW,2013-07-18 19:57:00,
2013-07-18 16:02:00,96.5,76.5,30.00,WNW,293,1.1,4.5,53,0.00,,,0.01,WUHU216HW,2013-07-18 20:02:00,
2013-07-18 16:07:00,96.3,76.4,30.00,SSW,203,0.4,3.6,53,0.00,,,0.01,WUHU216HW,2013-07-18 20:07:00,
2013-07-18 16:12:00,95.8,75.9,30.00,SE,135,1.1,3.6,53,0.00,,,0.01,WUHU216HW,2013-07-18 20:12:00,
2013-07-18 16:17:00,95.6,76.2,30.00,SSW,203,0.4,1.8,54,0.00,,,0.01,WUHU216HW,2013-07-18 20:17:00,
2013-07-18 16:22:00,95.8,75.9,30.00,SW,225,1.3,2.9,53,0.00,,,0.01,WUHU216HW,2013-07-18 20:22:00,
2013-07-18 16:27:00,96.1,76.2,29.99,SW,225,0.4,2.9,53,0.00,,,0.01,WUHU216HW,2013-07-18 20:27:00,
2013-07-18 16:32:00,96.5,76.0,29.99,ENE,68,1.8,2.7,52,0.00,,,0.01,WUHU216HW,2013-07-18 20:32:00,
2013-07-18 16:37:00,96.3,75.3,29.99,NNE,23,1.3,2.2,51,0.00,,,0.01,WUHU216HW,2013-07-18 20:37:00,
2013-07-18 16:42:00,95.9,75.5,29.99,SW,225,1.8,2.7,52,0.00,,,0.01,WUHU216HW,2013-07-18 20:42:00,
2013-07-18 16:47:00,95.8,74.8,29.98,NNE,23,0.7,2.7,51,0.00,,,0.01,WUHU216HW,2013-07-18 20:47:00,
2013-07-18 16:52:00,95.8,75.3,29.98,East,90,2.2,2.5,52,0.00,,,0.01,WUHU216HW,2013-07-18 20:52:00,
2013-07-18 16:57:00,95.8,73.6,29.98,SE,135,2.9,2.9,49,0.00,,,0.01,WUHU216HW,2013-07-18 20:57:00,
2013-07-18 17:02:00,95.4,74.5,29.98,NNE,23,0.2,3.4,51,0.00,,,0.01,WUHU216HW,2013-07-18 21:02:00,
2013-07-18 17:07:00,95.6,75.2,29.98,NE,45,1.1,3.4,52,0.00,,,0.01,WUHU216HW,2013-07-18 21:07:00,
2013-07-18 17:12:00,95.8,75.9,29.98,SSW,203,1.6,1.8,53,0.00,,,0.01,WUHU216HW,2013-07-18 21:12:00,
2013-07-18 17:17:00,96.1,76.2,29.98,SW,225,0.4,2.0,53,0.00,,,0.01,WUHU216HW,2013-07-18 21:17:00,
2013-07-18 17:22:00,96.3,74.1,29.98,ENE,68,1.6,2.0,49,0.00,,,0.01,WUHU216HW,2013-07-18 21:22:00,
2013-07-18 17:27:00,95.8,74.8,29.98,SSW,203,0.4,2.7,51,0.00,,,0.01,WUHU216HW,2013-07-18 21:27:00,
2013-07-18 17:32:00,96.1,75.7,29.98,SSW,203,3.6,4.3,52,0.00,,,0.01,WUHU216HW,2013-07-18 21:32:00,
2013-07-18 17:37:00,96.5,76.0,29.98,SSW,203,0.4,4.3,52,0.00,,,0.01,WUHU216HW,2013-07-18 21:37:00,
2013-07-18 17:42:00,96.7,76.1,29.98,SSW,203,2.9,3.6,52,0.00,,,0.01,WUHU216HW,2013-07-18 21:42:00,
2013-07-18 17:47:00,96.8,75.8,29.98,NNW,338,0.2,3.4,51,0.00,,,0.01,WUHU216HW,2013-07-18 21:47:00,
2013-07-18 17:52:00,96.8,76.3,29.98,SW,225,0.7,2.0,52,0.00,,,0.01,WUHU216HW,2013-07-18 21:52:00,
2013-07-18 17:57:00,97.2,76.2,29.97,NNE,23,0.2,2.5,51,0.00,,,0.01,WUHU216HW,2013-07-18 21:57:00,
2013-07-18 18:02:00,97.2,74.9,29.97,NE,45,0.2,2.5,49,0.00,,,0.01,WUHU216HW,2013-07-18 22:02:00,
2013-07-18 18:07:00,97.2,74.9,29.97,NNE,23,0.7,2.5,49,0.00,,,0.01,WUHU216HW,2013-07-18 22:07:00,
2013-07-18 18:12:00,96.8,75.2,29.96,SW,225,0.9,1.8,50,0.00,,,0.01,WUHU216HW,2013-07-18 22:12:00,
2013-07-18 18:17:00,96.8,74.6,29.97,SSW,203,0.4,1.6,49,0.00,,,0.01,WUHU216HW,2013-07-18 22:17:00,
2013-07-18 18:22:00,97.0,74.7,29.97,WSW,248,1.1,1.1,49,0.00,,,0.01,WUHU216HW,2013-07-18 22:22:00,
2013-07-18 18:27:00,96.7,74.4,29.96,NE,45,0.4,1.8,49,0.00,,,0.01,WUHU216HW,2013-07-18 22:27:00,
2013-07-18 18:32:00,95.6,74.1,29.97,NE,45,0.4,1.8,50,0.00,,,0.01,WUHU216HW,2013-07-18 22:32:00,
2013-07-18 18:37:00,95.0,74.7,29.97,NNW,338,1.1,1.8,52,0.00,,,0.01,WUHU216HW,2013-07-18 22:37:00,
2013-07-18 18:42:00,94.3,74.0,29.97,NNW,338,0.2,1.1,52,0.00,,,0.01,WUHU216HW,2013-07-18 22:42:00,
2013-07-18 18:47:00,94.3,74.5,29.97,NW,315,0.2,1.1,53,0.00,,,0.01,WUHU216HW,2013-07-18 22:47:00,
2013-07-18 18:52:00,94.0,74.2,29.98,NW,315,0.0,0.9,53,0.00,,,0.01,WUHU216HW,2013-07-18 22:52:00,
2013-07-18 18:57:00,93.2,73.5,29.98,NNW,338,0.4,0.9,53,0.00,,,0.01,WUHU216HW,2013-07-18 22:57:00,
2013-07-18 19:02:00,92.7,73.5,29.98,North,0,1.1,1.1,54,0.00,,,0.01,WUHU216HW,2013-07-18 23:02:00,
2013-07-18 19:07:00,92.0,72.9,29.98,North,0,0.0,1.1,54,0.00,,,0.01,WUHU216HW,2013-07-18 23:07:00,
2013-07-18 19:12:00,91.4,72.9,29.98,North,0,0.0,0.7,55,0.00,,,0.01,WUHU216HW,2013-07-18 23:12:00,
2013-07-18 19:17:00,91.1,73.1,29.97,North,0,0.0,0.4,56,0.00,,,0.01,WUHU216HW,2013-07-18 23:17:00,
2013-07-18 19:22:00,90.7,72.8,29.97,North,0,0.0,0.4,56,0.00,,,0.01,WUHU216HW,2013-07-18 23:22:00,
2013-07-18 19:27:00,90.2,73.9,29.98,North,0,1.8,1.8,59,0.00,,,0.01,WUHU216HW,2013-07-18 23:27:00,
2013-07-18 19:32:00,88.9,73.8,29.98,North,0,0.7,1.8,61,0.00,,,0.01,WUHU216HW,2013-07-18 23:32:00,
2013-07-18 19:37:00,87.8,73.3,29.98,North,0,0.0,1.8,62,0.00,,,0.01,WUHU216HW,2013-07-18 23:37:00,
2013-07-18 19:42:00,87.1,73.0,29.98,North,0,0.4,1.1,63,0.00,,,0.01,WUHU216HW,2013-07-18 23:42:00,
2013-07-18 19:47:00,87.1,73.4,29.98,North,0,0.0,1.1,64,0.00,,,0.01,WUHU216HW,2013-07-18 23:47:00,
2013-07-18 19:52:00,87.3,74.1,29.97,North,0,0.0,0.4,65,0.00,,,0.01,WUHU216HW,2013-07-18 23:52:00,
2013-07-18 19:57:00,87.7,74.4,29.97,North,0,0.0,0.0,65,0.00,,,0.01,WUHU216HW,2013-07-18 23:57:00,
2013-07-18 20:02:00,87.5,74.7,29.98,North,0,0.4,1.1,66,0.00,,,0.01,WUHU216HW,2013-07-19 00:02:00,
2013-07-18 20:07:00,86.8,74.5,29.98,North,0,0.0,1.1,67,0.00,,,0.01,WUHU216HW,2013-07-19 00:07:00,
2013-07-18 20:12:00,86.4,74.2,29.97,North,0,0.0,0.7,67,0.00,,,0.01,WUHU216HW,2013-07-19 00:12:00,
2013-07-18 20:17:00,86.2,74.0,29.98,WNW,293,0.7,0.7,67,0.00,,,0.01,WUHU216HW,2013-07-19 00:17:00,
2013-07-18 20:22:00,86.0,73.8,29.98,SW,225,0.4,1.1,67,0.00,,,0.01,WUHU216HW,2013-07-19 00:22:00,
2013-07-18 20:27:00,85.5,73.4,29.98,WSW,248,0.4,1.1,67,0.00,,,0.01,WUHU216HW,2013-07-19 00:27:00,
2013-07-18 20:32:00,84.8,73.5,29.97,West,270,0.9,1.3,69,0.00,,,0.01,WUHU216HW,2013-07-19 00:32:00,
2013-07-18 20:37:00,83.9,72.6,29.98,West,270,0.0,1.3,69,0.00,,,0.01,WUHU216HW,2013-07-19 00:37:00,
2013-07-18 20:42:00,83.5,72.7,29.97,West,270,0.0,0.7,70,0.00,,,0.01,WUHU216HW,2013-07-19 00:42:00,
2013-07-18 20:47:00,83.2,72.8,29.98,West,270,0.0,0.0,71,0.00,,,0.01,WUHU216HW,2013-07-19 00:47:00,
2013-07-18 20:52:00,82.8,72.5,29.98,West,270,0.0,0.0,71,0.00,,,0.01,WUHU216HW,2013-07-19 00:52:00,
2013-07-18 20:57:00,82.6,72.3,29.98,West,270,0.0,0.0,71,0.00,,,0.01,WUHU216HW,2013-07-19 00:57:00,
2013-07-18 21:02:00,82.1,72.2,29.98,West,270,0.0,0.4,72,0.00,,,0.01,WUHU216HW,2013-07-19 01:02:00,
2013-07-18 21:07:00,81.7,71.8,29.98,West,270,0.0,0.4,72,0.00,,,0.01,WUHU216HW,2013-07-19 01:07:00,
2013-07-18 21:12:00,81.4,71.9,29.98,West,270,0.0,0.2,73,0.00,,,0.01,WUHU216HW,2013-07-19 01:12:00,
2013-07-18 21:17:00,81.0,72.4,29.98,West,270,0.7,1.1,75,0.00,,,0.01,WUHU216HW,2013-07-19 01:17:00,
2013-07-18 21:22:00,80.3,72.0,29.98,West,270,0.7,1.1,76,0.00,,,0.01,WUHU216HW,2013-07-19 01:22:00,
2013-07-18 21:27:00,79.9,71.6,29.98,West,270,0.7,1.1,76,0.00,,,0.01,WUHU216HW,2013-07-19 01:27:00,
2013-07-18 21:32:00,79.7,71.5,29.98,West,270,0.0,0.9,76,0.00,,,0.01,WUHU216HW,2013-07-19 01:32:00,
2013-07-18 21:37:00,79.7,71.5,29.98,West,270,0.0,0.7,76,0.00,,,0.01,WUHU216HW,2013-07-19 01:37:00,
2013-07-18 21:42:00,79.6,71.3,29.98,West,270,0.0,0.0,76,0.00,,,0.01,WUHU216HW,2013-07-19 01:42:00,
2013-07-18 21:47:00,79.4,71.6,29.99,West,270,0.0,0.2,77,0.00,,,0.01,WUHU216HW,2013-07-19 01:47:00,
2013-07-18 21:52:00,79.2,71.4,29.99,West,270,0.0,0.2,77,0.00,,,0.01,WUHU216HW,2013-07-19 01:52:00,
2013-07-18 21:57:00,78.8,71.4,30.00,West,270,0.0,0.0,78,0.00,,,0.01,WUHU216HW,2013-07-19 01:57:00,
2013-07-18 22:02:00,78.7,71.2,30.00,West,270,0.0,0.0,78,0.00,,,0.01,WUHU216HW,2013-07-19 02:02:00,
2013-07-18 22:07:00,78.5,71.5,30.00,West,270,0.0,0.0,79,0.00,,,0.01,WUHU216HW,2013-07-19 02:07:00,
2013-07-18 22:12:00,78.5,71.5,30.00,West,270,0.0,0.0,79,0.00,,,0.01,WUHU216HW,2013-07-19 02:12:00,
2013-07-18 22:17:00,78.3,71.3,30.00,West,270,0.9,0.9,79,0.00,,,0.01,WUHU216HW,2013-07-19 02:17:00,
2013-07-18 22:22:00,78.1,71.5,30.01,West,270,0.0,0.9,80,0.00,,,0.01,WUHU216HW,2013-07-19 02:22:00,
2013-07-18 22:27:00,77.9,71.3,30.01,West,270,1.3,1.8,80,0.00,,,0.01,WUHU216HW,2013-07-19 02:27:00,
2013-07-18 22:32:00,77.8,71.1,30.01,SSW,203,0.9,1.8,80,0.00,,,0.01,WUHU216HW,2013-07-19 02:32:00,
2013-07-18 22:37:00,77.6,70.9,30.01,SSW,203,0.0,1.8,80,0.00,,,0.01,WUHU216HW,2013-07-19 02:37:00,
2013-07-18 22:42:00,77.6,70.9,30.00,SSW,203,0.2,0.7,80,0.00,,,0.01,WUHU216HW,2013-07-19 02:42:00,
2013-07-18 22:47:00,77.4,70.7,30.01,SSW,203,0.0,0.2,80,0.00,,,0.01,WUHU216HW,2013-07-19 02:47:00,
2013-07-18 22:52:00,77.2,70.9,30.01,SSW,203,0.0,0.2,81,0.00,,,0.01,WUHU216HW,2013-07-19 02:52:00,
2013-07-18 22:57:00,77.0,70.7,30.01,SSW,203,0.0,0.9,81,0.00,,,0.01,WUHU216HW,2013-07-19 02:57:00,
2013-07-18 23:02:00,76.9,70.6,30.01,SSW,203,0.0,0.9,81,0.00,,,0.01,WUHU216HW,2013-07-19 03:02:00,
2013-07-18 23:07:00,76.7,70.7,30.01,SSW,203,0.2,0.4,82,0.00,,,0.01,WUHU216HW,2013-07-19 03:07:00,
2013-07-18 23:12:00,76.5,70.6,30.01,SSW,203,0.0,0.4,82,0.00,,,0.01,WUHU216HW,2013-07-19 03:12:00,
2013-07-18 23:17:00,76.3,70.5,30.01,SSW,203,0.0,0.0,82,0.00,,,0.01,WUHU216HW,2013-07-19 03:17:00,
2013-07-18 23:22:00,76.1,70.7,30.01,SSW,203,0.2,0.7,83,0.00,,,0.01,WUHU216HW,2013-07-19 03:22:00,
2013-07-18 23:27:00,75.8,70.7,30.01,SSW,203,0.7,0.7,84,0.00,,,0.01,WUHU216HW,2013-07-19 03:27:00,
2013-07-18 23:32:00,75.6,70.8,30.01,SSW,203,0.0,0.7,85,0.00,,,0.01,WUHU216HW,2013-07-19 03:32:00,
2013-07-18 23:37:00,75.2,70.1,30.01,SSW,203,0.0,0.7,84,0.00,,,0.01,WUHU216HW,2013-07-19 03:37:00,
2013-07-18 23:42:00,75.2,70.5,30.01,SSW,203,0.0,0.0,85,0.00,,,0.01,WUHU216HW,2013-07-19 03:42:00,
2013-07-18 23:47:00,75.1,70.3,30.01,SSW,203,0.0,0.0,85,0.00,,,0.01,WUHU216HW,2013-07-19 03:47:00,
2013-07-18 23:52:00,74.9,70.1,30.01,SSW,203,0.0,0.2,85,0.00,,,0.01,WUHU216HW,2013-07-19 03:52:00,
2013-07-18 23:57:00,74.9,70.5,30.01,SSW,203,0.4,0.9,86,0.00,,,0.01,WUHU216HW,2013-07-19 03:57:00,